カタログに戻る

KOREASAT 1

運用中通信GEO
NORAD 23639·PAYLOAD·🇰🇷 South Korea

打ち上げ Aug 5, 1995 から Cape Canaveral Space Force Station

Loading…

TLE

最新Source: Space-Track

元期: Sep 14, 2026, 16:08 UTC

1 23639U 95041A   26257.67225478 -.00000360  00000-0  00000-0 0  9995
2 23639  14.7268 357.9252 0005678 240.1849 128.3868  0.99671133113426

AllMySatでKOREASAT 1をリアルタイム追跡

Download on the App Store